Regional Weather Roundup
Issued by NWS

Home | Current Version | Previous Version | Graphics & Text | Print | Product List | Glossary On
Versions: 1 2 3 4 5 6 7 8 9 10 11 12 13 14 15 16 17 18 19 20 21 22 23 24 25 26 27 28 29 30 31 32 33 34 35 36 37 38 39 40 41 42 43 44 45 46 47 48 49 50
914
ASUS43 KTOP 241459
RWRKS

WEATHER ROUNDUP FOR KANSAS
NATIONAL WEATHER SERVICE GOODLAND KS
1000 AM CDT FRI MAR 24 2017

NOTE:  "FAIR" INDICATES FEW OR NO CLOUDS BELOW 12,000 FEET WITH NO
SIGNIFICANT WEATHER AND/OR OBSTRUCTIONS TO VISIBILITY.

KSZ001>006-013>018-027>032-041>047-241600-
NORTHWEST KANSAS

CITY           SKY/WX    TMP DP  RH WIND       PRES   REMARKS
GOODLAND       RAIN      41  40  96 N32G48    29.77R FOG
HAYS             N/A     62  43  49 S9        29.71R
HILL CITY      PTSUNNY   53  52  96 NE24G33   29.76R
RUSSELL        PTSUNNY   62  37  39 SW24G31   29.71R
$$

KSZ061>065-074>080-084>089-241600-
SOUTHWEST KANSAS

CITY           SKY/WX    TMP DP  RH WIND       PRES   REMARKS
DODGE CITY     SUNNY     56  39  53 SE16G22   29.70R
ELKHART          N/A     43  31  63 NE13        N/A
GARDEN CITY    SUNNY     52  38  58 SE17      29.66R
GREAT BEND     SUNNY     61  39  44 S15       29.74R
LIBERAL        MOSUNNY   54  32  43 SE16      29.60R
$$

KSZ066>073-081>083-090>101-241600-
SOUTHEAST KANSAS

CITY           SKY/WX    TMP DP  RH WIND       PRES   REMARKS
CHANUTE        LGT RAIN  65  52  62 S22G31    29.83R
COFFEYVILLE    CLOUDY    67  52  58 S25G36    29.83S
HUTCHINSON     SUNNY     67  49  52 S21G29    29.74R
MEDICINE LODGE   N/A     63  37  38 S18G25    29.72R
NEWTON         SUNNY     67  52  58 S31G38    29.74R
PARSONS        CLOUDY    67  51  56 S16G25    29.84R
WICHITA INTL   PTSUNNY   66  52  60 S23G30    29.75R
WICHITA JABRA  SUNNY     68  52  56 S25G38    29.75R
WINFIELD       CLOUDY    69  54  58 S28G37    29.78R
$$

KSZ007>012-019>026-033>040-048>060-102>105-241600-
NORTHEAST KANSAS

CITY           SKY/WX    TMP DP  RH WIND       PRES   REMARKS
CONCORDIA      CLOUDY    67  46  47 S8        29.75R
EMPORIA        CLOUDY    67  51  56 S32G43    29.76R
LAWRENCE       CLOUDY    67  46  47 SE16      29.81R
MANHATTAN      MOSUNNY   71  48  43 S15G23    29.76R
OLATHE IND     CLOUDY    68  45  43 S21G35    29.82R
OLATHE EXE     CLOUDY    67  43  41 S20G30    29.82R
SALINA         PTSUNNY   69  49  48 S25G36    29.71R
TOPEKA BILLARD TSTM      63  50  62 S3        29.80R
TOPEKA FORBES  LGT RAIN  66  50  56 S9        29.79R
$$




USA.gov is the U.S. government's official web portal to all federal, state and local government web resources and services.